Location: Arroyo Retuerta
(40.5469°N, 4.3534°W)
Time: 11:56:49
(UTC+00:00)

ALOS 2 - Pass Details

Date: 01 June 2020
Orbit: 630 x 632 km, 97.9° (Epoch: 06 July)

Event Time Altitude Azimuth Distance (km) Brightness Sun altitude
Exits shadow 23:07:42 31° 67° (ENE) 1,112 3.8 -25.3°
Drops below altitude 10° 23:11:28 10° 8° (N) 2,021 6.0 -25.5°
Sets 23:13:51 0° 358° (N) 2,934 7.3 -25.6°
